Location: D�derode
(51.8092°N, 10.1065°E)
Time: 17:24:18
(UTC+00:00)

X-37B - Pass Details

Date: 22 April 2021
Orbit: 386 x 389 km, 45.0° (Epoch: 08 May)

Event Time Altitude Azimuth Distance (km) Brightness Sun altitude
Exits shadow 02:37:25 21° 199° (SSW) 935 2.0 -12.9°
Maximum altitude 02:38:13 23° 175° (S) 870 2.0 -12.8°
Drops below altitude 10° 02:40:50 10° 120° (ESE) 1,414 3.7 -12.5°
Sets 02:43:08 0° 106° (ESE) 2,268 5.0 -12.2°
